This demonstration page uses our WeatherBlox Daily Observations layout. Learn more.

Left ArrowRight Arrow

34.16533, -84.80231

Hourly Observations for July 15, 2016

Temp ( °F °C ) Dew Point ( °F °C ) Humidity (%) Winds ( mph kmh ) Pressure ( in mb ) Visibility ( mi km ) Precip ( " mm )
12:53 am 00:53 Mostly Clear 74 23.3 67 19.4 79 79 Calm 30.05 1018 10 16 0.00 0.00
1:53 am 01:53 Clear 73 22.8 67 19.4 81 81 Calm 30.02 1017 10 16 0.00 0.00
2:53 am 02:53 Clear 70 21.1 67 19.4 90 90 Calm 30.00 1016 10 16 0.00 0.00
3:53 am 03:53 Clear 68 20 67 19.4 96 96 Calm 29.99 1016 10 16 0.00 0.00
4:53 am 04:53 Clear 70 21.1 67 19.4 90 90 Calm 29.98 1015 10 16 0.00 0.00
5:53 am 05:53 Clear 69 20.6 67 19.4 93 93 Calm 29.99 1016 10 16 0.00 0.00
6:53 am 06:53 Sunny 68 20 67 19.4 96 96 Calm 30.01 1016 10 16 0.00 0.00
7:53 am 07:53 Sunny 69 20.6 67 19.4 93 93 Calm 30.04 1017 10 16 0.00 0.00
8:53 am 08:53 Sunny 75 23.9 69 20.6 82 82 VRB 3 6 30.05 1018 10 16 0.00 0.00
9:53 am 09:53 Sunny 78 25.6 70 21.1 76 76 S 3 6 30.05 1018 10 16 0.00 0.00
10:53 am 10:53 Sunny 80 26.7 71 21.7 74 74 VRB 5 7 30.04 1017 10 16 0.00 0.00
11:53 am 11:53 Mostly Sunny 81 27.2 69 20.6 67 67 Calm 30.05 1018 10 16 0.00 0.00
12:37 pm 12:37 Mostly Cloudy 83 28.3 70 21.1 65 65 NNW 7 11 30.03 1017 10 16 0.00 0.00
12:53 pm 12:53 Partly Cloudy 84 28.9 70 21.1 63 63 Calm 30.04 1017 10 16 0.00 0.00
1:53 pm 13:53 Partly Cloudy 88 31.1 67 19.4 50 50 VRB 3 6 30.02 1017 10 16 0.00 0.00
2:53 pm 14:53 Mostly Sunny 90 32.2 68 20 48 48 VRB 3 6 30.00 1016 10 16 0.00 0.00
3:53 pm 15:53 Mostly Sunny 90 32.2 67 19.4 47 47 VRB 3 6 29.98 1015 10 16 0.00 0.00
4:53 pm 16:53 Mostly Sunny 90 32.2 66 18.9 45 45 VRB 5 7 29.96 1015 10 16 0.00 0.00
5:53 pm 17:53 Mostly Cloudy 89 31.7 66 18.9 47 47 VRB 3 6 29.96 1014 10 16 0.00 0.00
6:53 pm 18:53 Mostly Cloudy 87 30.6 66 18.9 50 50 VRB 3 6 29.95 1014 10 16 0.00 0.00
7:53 pm 19:53 Sunny 85 29.4 68 20 57 57 VRB 5 7 29.96 1014 10 16 0.00 0.00
8:53 pm 20:53 Clear 83 28.3 68 20 61 61 Calm 29.97 1015 10 16 0.00 0.00
9:53 pm 21:53 Clear 78 25.6 69 20.6 74 74 Calm 29.99 1016 10 16 0.00 0.00
10:53 pm 22:53 Clear 76 24.4 70 21.1 82 82 Calm 30.00 1016 10 16 0.00 0.00
11:53 pm 23:53 Clear 74 23.3 70 21.1 88 88 Calm 30.02 1017 10 16 0.00 0.00

Powered by AerisWeather